Florence, SC

6:00 PM EDT on October 20, 2019 (GMT -0400)
Florence Regional

Weather History for KFLO - September, 2019

Change the Weather History Date:

Tuesday, September 17, 2019

  Actual Average Record
Temperature  
Mean Temperature 80 °F 74 °F  
Max Temperature 91 °F 84 °F 96 °F (2005)
Min Temperature 68 °F 64 °F 49 °F (2001)
Degree Days  
Heating Degree Days 0 0  
Month to date heating degree days 0 0  
Since 1 July heating degree days 0 0  
Cooling Degree Days 15 9  
Month to date cooling degree days 273 192  
Year to date cooling degree days 2329 1862  
Growing Degree Days 30 (Base 50)    
Moisture  
Dew Point 66 °F    
Average Humidity 68    
Maximum Humidity 90    
Minimum Humidity 39    
Precipitation  
Precipitation 0.00 in 0.12 in 0.80 in (1974)
Month to date precipitation 3.67 2.18  
Year to date precipitation 32.89 32.66  
Sea Level Pressure  
Sea Level Pressure 29.96 in    
Wind  
Wind Speed 3 mph ()    
Max Wind Speed 16 mph    
Max Gust Speed 20 mph    
Visibility 9.9 miles    
Events      
T = Trace of Precipitation, MM = Missing Value Source: Averaged Metar Reports

Daily Weather History Graph

Daily Weather History Graph

Search for Another Location

Airport or City:

Astronomy

Sep. 17, 2019 Rise Set
Actual Time 7:03 AM EDT 7:23 PM EDT
Civil Twilight 6:38 AM EDT 7:48 PM EDT
Nautical Twilight 6:08 AM EDT 8:17 PM EDT
Astronomical Twilight 5:38 AM EDT 8:47 PM EDT
Moon 9:33 PM EDT (9/17) 9:59 AM EDT (9/17)
Length of Visible Light 13h 09m
Length of Day
12h 19m
Waning Gibbous, 89% of the Moon is Illuminated
Sep 17
Waning Gibbous
Sep 21
Last Quarter
Sep 28
New
Oct 5
First Quarter
Oct 13
Full

Hourly Weather History & Observations

Time (EDT) Temp. Heat Index Dew Point Humidity Pressure Visibility Wind Dir Wind Speed Gust Speed Precip Events Conditions
12:53 AM 70.0 °F - 66.9 °F 90% 29.95 in 10.0 mi Calm Calm - N/A   Clear
1:53 AM 70.0 °F - 66.9 °F 90% 29.95 in 10.0 mi Calm Calm - N/A   Clear
2:53 AM 70.0 °F - 66.0 °F 87% 29.93 in 10.0 mi North 3.5 mph - N/A   Clear
3:53 AM 70.0 °F - 66.0 °F 87% 29.93 in 10.0 mi NNW 3.5 mph - N/A   Clear
5:53 AM 68.0 °F - 64.9 °F 90% 29.94 in 10.0 mi North 5.8 mph - N/A   Clear
6:53 AM 69.1 °F - 66.0 °F 90% 29.95 in 10.0 mi North 4.6 mph - N/A   Clear
7:53 AM 71.1 °F - 66.9 °F 87% 29.97 in 8.0 mi NNE 4.6 mph - N/A   Scattered Clouds
8:53 AM 75.0 °F - 68.0 °F 79% 29.98 in 10.0 mi NNE 3.5 mph - N/A   Clear
9:53 AM 80.1 °F 82.7 °F 68.0 °F 67% 29.99 in 10.0 mi NE 3.5 mph - N/A   Clear
10:53 AM 82.9 °F 86.5 °F 69.1 °F 63% 29.99 in 10.0 mi NE 5.8 mph - N/A   Clear
11:53 AM 86.0 °F 89.4 °F 68.0 °F 55% 29.98 in 10.0 mi Variable 3.5 mph - N/A   Clear
12:53 PM 89.1 °F 90.0 °F 63.0 °F 42% 29.97 in 10.0 mi Variable 3.5 mph - N/A   Clear
2:53 PM 90.0 °F 91.7 °F 64.9 °F 43% 29.94 in 10.0 mi ENE 4.6 mph - N/A   Clear
3:53 PM 90.0 °F 90.3 °F 62.1 °F 39% 29.93 in 10.0 mi Variable 4.6 mph - N/A   Overcast
4:53 PM 90.0 °F 90.3 °F 62.1 °F 39% 29.92 in 10.0 mi ENE 5.8 mph - N/A   Clear
5:53 PM 88.0 °F 89.3 °F 64.0 °F 45% 29.94 in 10.0 mi East 4.6 mph - N/A   Mostly Cloudy
6:53 PM 84.9 °F 87.6 °F 66.9 °F 55% 29.94 in 10.0 mi East 3.5 mph - N/A   Clear
7:53 PM 81.0 °F 84.1 °F 69.1 °F 67% 29.95 in 10.0 mi East 4.6 mph - N/A   Clear
8:53 PM 78.1 °F - 68.0 °F 71% 29.96 in 10.0 mi East 5.8 mph - N/A   Clear
9:53 PM 78.1 °F - 66.9 °F 68% 29.98 in 10.0 mi ENE 5.8 mph - N/A   Clear
10:53 PM 78.1 °F - 66.9 °F 68% 29.99 in 10.0 mi ENE 9.2 mph - N/A   Mostly Cloudy
11:53 PM 75.9 °F - 66.0 °F 71% 30.00 in 10.0 mi East 12.7 mph - N/A   Clear